Location: ??????
(55.7522°N, 37.6156°E)
Time: 17:19:58
(UTC+00:00)

Cosmos 407 Rocket - Pass Details

Date: 14 June 2025
Orbit: 740 x 781 km, 74.0° (Epoch: 12 July)

Event Time Altitude Azimuth Distance (km) Brightness Sun altitude
Exits shadow 21:10:50 - 209° (SSW) 2,327 5.5 -10.8°
Reaches altitude 10° 21:11:01 10° 209° (SSW) 2,257 5.4 -10.8°
Maximum altitude 21:16:08 84° 297° (WNW) 754 3.5 -10.9°
Drops below altitude 10° 21:21:16 10° 27° (NNE) 2,263 7.0 -10.9°
Sets 21:23:38 0° 29° (NNE) 3,191 7.8 -10.9°
